Weather History for Nebraska City, NE

Change the Weather History Date:

Thursday, July 18, 2013

  Actual Average (KSDA) Record (KSDA)
Temperature  
Mean Temperature 81 °F -  
Max Temperature 93 °F 89 °F 104 °F (1954)
Min Temperature 70 °F 68 °F 54 °F (1979)
Cooling Degree Days 16    
Growing Degree Days 31 (Base 50)    
Moisture  
Dew Point 68 °F    
Average Humidity 65    
Maximum Humidity 95    
Minimum Humidity 40    
Precipitation  
Precipitation 0.00 in - - ()
Sea Level Pressure  
Sea Level Pressure 30.10 in    
Wind  
Wind Speed 8 mph (SSW)    
Max Wind Speed 18 mph    
Max Gust Speed 23 mph    
Visibility 10 miles    
Events      
Averages and records for this station are not official NWS values.
T = Trace of Precipitation, MM = Missing Value Source: NWS Daily Summary

Daily Weather History Graph

Daily Weather History Graph

Search for Another Location

Airport:

Trip Planner

Search our weather history database for the weather conditions in past years. The results will help you decide how hot, cold, wet, or windy it might be!

Date:

Astronomy

Jul. 18, 2013 Rise Set
Actual Time 6:08 AM CDT 8:50 PM CDT
Civil Twilight 5:36 AM CDT 9:22 PM CDT
Nautical Twilight 4:55 AM CDT 10:02 PM CDT
Astronomical Twilight 4:10 AM CDT 10:48 PM CDT
Moon 4:48 PM CDT (7/18) 1:59 AM CDT (7/18)
Length of Visible Light 15h 46m
Length of Day
14h 42m
Waxing Gibbous, 77% of the Moon is Illuminated
Jul 18
Waxing Gibbous
Jul 22
Full
Jul 29
Last Quarter
Aug 6
New
Aug 14
First Quarter

Hourly Weather History & Observations

Time (CDT) Temp. Heat Index Dew Point Humidity Pressure Visibility Wind Dir Wind Speed Gust Speed Precip Events Conditions
12:15 AM 75.4 °F - 70.2 °F 84% 30.20 in 10.0 mi South 4.6 mph - N/A   Clear
12:35 AM 74.8 °F - 70.0 °F 85% 30.20 in 10.0 mi South 4.6 mph - N/A   Clear
12:55 AM 74.3 °F - 70.0 °F 86% 30.20 in 10.0 mi SSE 4.6 mph - N/A   Clear
1:15 AM 74.5 °F - 70.2 °F 86% 30.20 in 10.0 mi South 5.8 mph - N/A   Clear
1:35 AM 73.6 °F - 70.9 °F 91% 30.20 in 10.0 mi South 5.8 mph - N/A   Clear
1:55 AM 73.6 °F - 71.1 °F 92% 30.19 in 10.0 mi South 5.8 mph - N/A   Clear
2:15 AM 73.4 °F - 71.1 °F 92% 30.19 in 10.0 mi South 5.8 mph - N/A   Clear
2:35 AM 72.5 °F - 71.1 °F 95% 30.19 in 10.0 mi South 6.9 mph - N/A   Clear
2:55 AM 72.1 °F - 70.7 °F 95% 30.19 in 10.0 mi South 5.8 mph - N/A   Clear
3:15 AM 72.1 °F - 70.3 °F 94% 30.19 in 10.0 mi South 5.8 mph - N/A   Clear
3:35 AM 71.6 °F - 70.0 °F 95% 30.19 in 10.0 mi South 5.8 mph - N/A   Clear
3:55 AM 71.8 °F - 69.8 °F 93% 30.19 in 10.0 mi South 5.8 mph - N/A   Clear
4:15 AM 71.6 °F - 69.4 °F 93% 30.18 in 10.0 mi SSW 5.8 mph - N/A   Clear
4:35 AM 71.8 °F - 69.8 °F 93% 30.18 in 10.0 mi South 6.9 mph - N/A   Clear
4:55 AM 71.6 °F - 69.3 °F 92% 30.17 in 10.0 mi SSW 5.8 mph - N/A   Clear
5:15 AM 72.0 °F - 69.3 °F 91% 30.17 in 10.0 mi SSW 6.9 mph - N/A   Clear
5:35 AM 71.6 °F - 68.5 °F 90% 30.17 in 10.0 mi SSW 5.8 mph - N/A   Clear
5:55 AM 70.9 °F - 68.4 °F 92% 30.17 in 10.0 mi SSW 6.9 mph - N/A   Clear
6:15 AM 70.7 °F - 68.0 °F 91% 30.17 in 10.0 mi SSW 5.8 mph - N/A   Clear
6:35 AM 70.7 °F - 68.0 °F 91% 30.17 in 10.0 mi SSW 5.8 mph - N/A   Clear
6:55 AM 71.2 °F - 68.0 °F 89% 30.16 in 10.0 mi SSW 3.5 mph - N/A   Clear
7:15 AM 72.7 °F - 68.2 °F 86% 30.17 in 10.0 mi SSW 5.8 mph - N/A   Clear
7:35 AM 74.5 °F - 67.8 °F 80% 30.17 in 10.0 mi SSW 6.9 mph - N/A   Clear
7:55 AM 75.7 °F - 68.5 °F 78% 30.16 in 10.0 mi SSW 6.9 mph - N/A   Clear
8:15 AM 77.4 °F - 69.3 °F 76% 30.16 in 10.0 mi SW 5.8 mph - N/A   Clear
8:35 AM 78.8 °F - 69.6 °F 73% 30.16 in 10.0 mi SW 8.1 mph - N/A   Clear
8:55 AM 80.1 °F 83.0 °F 69.6 °F 70% 30.16 in 10.0 mi SW 9.2 mph - N/A   Clear
9:15 AM 81.5 °F 85.3 °F 70.3 °F 69% 30.15 in 10.0 mi SSW 8.1 mph - N/A   Clear
9:35 AM 82.8 °F 87.2 °F 70.9 °F 67% 30.15 in 10.0 mi SSW 9.2 mph - N/A   Clear
9:55 AM 83.8 °F 88.6 °F 71.1 °F 65% 30.15 in 10.0 mi SW 9.2 mph - N/A   Clear
10:15 AM 84.6 °F 87.9 °F 68.4 °F 58% 30.15 in 10.0 mi SW 12.7 mph - N/A   Clear
10:35 AM 85.1 °F 88.8 °F 68.9 °F 58% 30.14 in 10.0 mi SW 10.4 mph - N/A   Clear
10:55 AM 86.4 °F 90.4 °F 68.9 °F 56% 30.14 in 10.0 mi SW 10.4 mph 17.3 mph N/A   Clear
11:15 AM 86.9 °F 89.6 °F 66.6 °F 51% 30.14 in 10.0 mi SW 12.7 mph - N/A   Clear
11:35 AM 87.8 °F 90.0 °F 66.0 °F 48% 30.13 in 10.0 mi SW 13.8 mph 18.4 mph N/A   Clear
11:55 AM 88.5 °F 91.2 °F 66.4 °F 48% 30.12 in 10.0 mi SW 13.8 mph - N/A   Clear
12:15 PM 88.7 °F 90.8 °F 65.7 °F 46% 30.12 in 10.0 mi SSW 12.7 mph 19.6 mph N/A   Clear
12:35 PM 89.4 °F 91.9 °F 66.0 °F 46% 30.11 in 10.0 mi SW 11.5 mph 20.7 mph N/A   Clear
12:55 PM 89.8 °F 92.1 °F 65.7 °F 45% 30.11 in 10.0 mi SSW 13.8 mph 18.4 mph N/A   Scattered Clouds
1:15 PM 90.9 °F 92.7 °F 64.9 °F 42% 30.10 in 10.0 mi SSW 16.1 mph 23.0 mph N/A   Scattered Clouds
1:35 PM 91.4 °F 93.6 °F 65.3 °F 42% 30.09 in 10.0 mi SSW 12.7 mph 20.7 mph N/A   Clear
1:55 PM 90.3 °F 91.9 °F 64.6 °F 42% 30.08 in 10.0 mi South 12.7 mph 20.7 mph N/A   Scattered Clouds
2:15 PM 91.4 °F 93.6 °F 65.7 °F 42% 30.08 in 10.0 mi SW 11.5 mph 21.9 mph N/A   Scattered Clouds
2:35 PM 91.9 °F 94.1 °F 65.5 °F 41% 30.07 in 10.0 mi SSW 17.3 mph 21.9 mph N/A   Scattered Clouds
2:55 PM 91.9 °F 94.1 °F 65.1 °F 41% 30.06 in 10.0 mi SSW 16.1 mph 20.7 mph N/A   Scattered Clouds
3:15 PM 92.1 °F 94.4 °F 65.3 °F 41% 30.05 in 10.0 mi SSW 18.4 mph 21.9 mph N/A   Scattered Clouds
3:35 PM 92.3 °F 94.3 °F 64.9 °F 40% 30.04 in 10.0 mi SSW 16.1 mph 21.9 mph N/A   Scattered Clouds
3:55 PM 92.1 °F 94.0 °F 64.9 °F 40% 30.04 in 10.0 mi SSW 16.1 mph 21.9 mph N/A   Clear
4:15 PM 92.5 °F 95.0 °F 65.3 °F 41% 30.03 in 10.0 mi South 12.7 mph 20.7 mph N/A   Scattered Clouds
5:15 PM 92.3 °F 94.3 °F 64.8 °F 40% 30.01 in 10.0 mi SSW 15.0 mph 23.0 mph N/A   Scattered Clouds
5:35 PM 92.5 °F 95.0 °F 65.3 °F 41% 30.01 in 10.0 mi SSW 12.7 mph 20.7 mph N/A   Scattered Clouds
5:55 PM 92.3 °F 94.7 °F 65.1 °F 41% 30.00 in 10.0 mi SSW 15.0 mph - N/A   Scattered Clouds
6:15 PM 91.4 °F 93.2 °F 64.4 °F 41% 29.99 in 10.0 mi SW 15.0 mph - N/A   Scattered Clouds
6:35 PM 91.2 °F 92.9 °F 64.4 °F 41% 29.98 in 10.0 mi SSW 13.8 mph 19.6 mph N/A   Clear
6:55 PM 90.5 °F 92.9 °F 66.0 °F 44% 29.98 in 10.0 mi SSW 9.2 mph - N/A   Clear
7:15 PM 89.2 °F 91.3 °F 65.5 °F 45% 29.98 in 10.0 mi SSW 10.4 mph - N/A   Clear
7:35 PM 88.5 °F 90.8 °F 66.2 °F 47% 29.98 in 10.0 mi SSW 8.1 mph - N/A   Clear
7:55 PM 86.9 °F 89.6 °F 66.6 °F 51% 29.97 in 10.0 mi SSW 6.9 mph - N/A   Clear
8:15 PM 85.6 °F 88.5 °F 67.1 °F 54% 29.97 in 10.0 mi South 8.1 mph - N/A   Clear
8:35 PM 83.7 °F 86.2 °F 66.7 °F 57% 29.97 in 10.0 mi South 6.9 mph - N/A   Clear
8:55 PM 82.6 °F 84.9 °F 66.6 °F 58% 29.97 in 10.0 mi South 8.1 mph - N/A   Clear
9:15 PM 81.9 °F 84.1 °F 66.4 °F 59% 29.97 in 10.0 mi South 8.1 mph - N/A   Clear
9:35 PM 81.1 °F 83.2 °F 66.2 °F 60% 29.98 in 10.0 mi SSW 8.1 mph - N/A   Clear
9:55 PM 80.2 °F 82.3 °F 66.2 °F 62% 29.98 in 10.0 mi SSW 8.1 mph - N/A   Clear
10:15 PM 80.2 °F 82.3 °F 66.2 °F 62% 29.98 in 10.0 mi SSW 8.1 mph - N/A   Clear
10:35 PM 79.3 °F - 66.2 °F 64% 29.99 in 10.0 mi SSW 8.1 mph - N/A   Clear
10:55 PM 79.0 °F - 66.2 °F 65% 29.99 in 10.0 mi SSW 6.9 mph - N/A   Clear
11:15 PM 78.6 °F - 66.2 °F 66% 29.99 in 10.0 mi SSW 8.1 mph - N/A   Clear
11:35 PM 77.4 °F - 66.2 °F 68% 29.99 in 10.0 mi SSW 6.9 mph - N/A   Clear
11:55 PM 76.6 °F - 66.2 °F 70% 29.98 in 10.0 mi SSW 8.1 mph - N/A   Clear